Location: Harmony
(28.2000°N, 81.1500°W)
Time: 10:01:17
(UTC-04:00)

CENTAUR R/B - Pass Details

Date: 18 December 2017
Orbit: 805 x 1383 km, 63.5° (Epoch: 18 April)

Event Time Altitude Azimuth Distance (km) Brightness Sun altitude
Rises 19:09:25 0° 339° (NNW) 4,210 5.9 -20.8°
Reaches altitude 10° 19:12:18 10° 345° (NNW) 3,305 5.2 -21.4°
Maximum altitude 19:20:07 46° 57° (ENE) 1,764 3.4 -23.1°
Enters shadow 19:22:50 36° 100° (E) 2,037 3.7 -23.7°
